CW8490 Weather Reports


Display with metric or nautical units.
time (UTC)temp
F
wind
direction
speed
MPH
gust
MPH
rain 1hr
in
rain 24hr
in
rain mn
in
humidity
%
barometer
mb
20260905093816 72 0.0 0.0 0.00 0.00 0.00 92 1012.4
20260905092817 72 0.0 0.0 0.00 0.00 0.00 92 1012.5
20260905091816 72 0.0 0.0 0.00 0.00 0.00 92 1012.4
20260905090916 72 0.0 0.0 0.00 0.00 0.00 92 1012.4
20260905085816 72 0.0 0.0 0.00 0.00 0.00 92 1012.3
20260905084816 72 0.0 0.0 0.00 0.00 0.00 92 1012.4
20260905083816 73 0.0 0.0 0.00 0.00 0.00 92 1012.4
20260905082816 73 0.0 0.0 0.00 0.00 0.00 92 1012.4
20260905081816 73 0.0 0.0 0.00 0.00 0.00 91 1012.3
20260905080816 73 0.0 0.0 0.00 0.00 0.00 91 1012.3
20260905075817 73 0.0 0.0 0.00 0.00 0.00 91 1012.3
20260905074816 74 0.0 0.0 0.00 0.00 0.00 90 1012.2
20260905073816 74 0.0 0.0 0.00 0.00 0.00 90 1012.3
20260905072857 73 0.0 0.0 0.00 0.00 0.00 91 1012.2
20260905071816 73 0.0 0.0 0.00 0.00 0.00 91 1012.3
20260905070817 74 0.0 0.0 0.00 0.00 0.00 91 1012.4
20260905065816 74 0.0 0.0 0.00 0.00 0.00 91 1012.4
20260905064856 74 0.0 0.0 0.00 0.00 0.00 91 1012.3
20260905063838 74 0.0 0.0 0.00 0.00 0.00 91 1012.4
20260905062817 74 0.0 0.0 0.00 0.00 0.00 91 1012.4
20260905061816 74 0.0 0.0 0.00 0.00 0.00 91 1012.5
20260905060816 74 0.0 0.0 0.00 0.00 0.00 89 1012.4
20260905055856 74 0.0 0.0 0.00 0.00 0.00 89 1012.4
20260905054817 74 0.0 0.0 0.00 0.00 0.00 89 1012.4
20260905053816 74 0.0 0.0 0.00 0.00 0.00 88 1012.5
20260905052817 75 0.0 0.0 0.00 0.00 0.00 88 1012.5
20260905051817 75 0.0 0.0 0.00 0.00 0.00 88 1012.5
20260905050856 76 0.0 0.0 0.00 0.00 0.00 88 1012.4
20260905045817 76 0.0 0.0 0.00 0.00 0.00 87 1012.4
20260905044818 76 0.0 0.0 0.00 0.00 0.00 89 1012.4
20260905043817 76 0.0 0.0 0.00 0.00 0.00 89 1012.3
20260905042817 76 0.0 0.0 0.00 0.00 0.00 87 1012.3
20260905041817 76 0.0 0.0 0.00 0.00 0.00 88 1012.2
20260905040817 76 0.0 0.0 0.00 0.00 0.00 87 1012.2
20260905035818 77 0.0 0.0 0.00 0.00 0.00 87 1012.2
20260905034837 77 0.0 0.0 0.00 0.00 0.00 86 1012.3
20260905033817 77 0.0 0.0 0.00 0.00 0.00 86 1012.3
20260905032838 77 0.0 0.0 0.00 0.00 0.00 85 1012.2
20260905031818 77 0.0 0.0 0.00 0.00 0.00 84 1012.1
20260905030837 77 0.0 0.0 0.00 0.00 0.00 84 1012.1
20260905025817 78 0.0 0.0 0.00 0.00 0.00 83 1012.1
20260905024817 78 0.0 0.0 0.00 0.00 0.00 83 1011.9
20260905023817 78 0.0 0.0 0.00 0.00 0.00 81 1011.7
20260905022818 79 0.0 0.0 0.00 0.00 0.00 81 1011.8
20260905021817 79 0.0 0.0 0.00 0.00 0.00 80 1011.5
20260905020857 80 0.0 0.0 0.00 0.00 0.00 80 1011.4
20260905015818 81 0.0 0.0 0.00 0.00 0.00 78 1011.4
20260905014817 82 0.0 0.0 0.00 0.00 0.00 77 1011.1
20260905013818 83 0.0 0.0 0.00 0.00 0.00 78 1011.0
20260905012818 84 0.0 1.0 0.00 0.00 0.00 78 1011.0
20260905011817 84 0.0 0.0 0.00 0.00 0.00 73 1010.8
20260905010837 85 0.0 0.0 0.00 0.00 0.00 70 1010.7
20260905005817 87 0.0 0.0 0.00 0.00 0.00 68 1010.8
20260905004817 88 0.0 0.0 0.00 0.00 0.00 67 1010.8
20260905003817 91 0.0 0.0 0.00 0.00 0.00 63 1010.8
20260905002858 93 0.0 0.0 0.00 0.00 0.00 57 1010.8
20260905002638 93 0.0 0.0 0.00 0.00 0.00 57 1010.8
20260905001617 94 0.0 1.0 0.00 0.00 0.00 55 1010.8
20260905000618 95 203 1.0 2.0 0.00 0.00 0.00 55 1010.8
20260904235617 96 203 2.0 3.0 0.00 0.00 0.00 54 1010.9
20260904234618 96 180 1.0 2.0 0.00 0.00 0.00 54 1011.0
20260904233637 97 0.0 0.0 0.00 0.00 0.00 54 1011.1
20260904232618 96 180 2.0 3.0 0.00 0.00 0.00 52 1011.2
20260904231618 97 180 3.0 4.0 0.00 0.00 0.00 51 1011.2
20260904230638 97 158 3.0 4.0 0.00 0.00 0.00 51 1011.3
20260904225638 97 180 2.0 5.0 0.00 0.00 0.00 51 1011.4
20260904224618 98 135 4.0 5.0 0.00 0.00 0.00 50 1011.3
20260904223618 98 248 1.0 3.0 0.00 0.00 0.00 50 1011.3
20260904222617 98 225 4.0 6.0 0.00 0.00 0.00 51 1011.3
20260904221618 98 158 4.0 7.0 0.00 0.00 0.00 50 1011.3
20260904220703 98 0.0 0.0 0.00 0.00 0.00 49 1011.5
20260904215816 98 180 4.0 8.0 0.00 0.00 0.00 52 1011.6
20260904214815 97 113 4.0 5.0 0.00 0.00 0.00 51 1011.5
20260904213816 98 113 4.0 6.0 0.00 0.00 0.00 52 1011.7
20260904212816 97 180 3.0 4.0 0.00 0.00 0.00 52 1011.7
20260904211815 97 90 6.0 9.0 0.00 0.00 0.00 52 1011.7
20260904210815 98 225 3.0 6.0 0.00 0.00 0.00 53 1011.9
20260904205816 97 135 3.0 5.0 0.00 0.00 0.00 52 1012.0
20260904204815 97 135 2.0 4.0 0.00 0.00 0.00 54 1012.1
20260904203816 97 135 5.0 14.0 0.00 0.00 0.00 54 1012.2
20260904202815 97 203 1.0 4.0 0.00 0.00 0.00 55 1012.2
20260904201815 97 90 6.0 9.0 0.00 0.00 0.00 55 1012.3
20260904200816 97 113 5.0 7.0 0.00 0.00 0.00 54 1012.4
20260904195816 98 203 5.0 6.0 0.00 0.00 0.00 54 1012.4
20260904194816 97 158 5.0 9.0 0.00 0.00 0.00 55 1012.4
20260904193816 97 180 4.0 5.0 0.00 0.00 0.00 56 1012.5
20260904192816 96 203 3.0 5.0 0.00 0.00 0.00 54 1012.6
20260904191816 96 180 5.0 7.0 0.00 0.00 0.00 56 1012.6
20260904190816 97 225 4.0 7.0 0.00 0.00 0.00 57 1012.8
20260904185816 96 203 5.0 6.0 0.00 0.00 0.00 58 1012.9
20260904184816 95 248 3.0 5.0 0.00 0.00 0.00 57 1012.8
20260904183816 94 158 7.0 10.0 0.00 0.00 0.00 58 1012.9
20260904182815 95 203 3.0 8.0 0.00 0.00 0.00 59 1013.0
20260904181835 95 180 6.0 11.0 0.00 0.00 0.00 58 1013.2
20260904180816 94 203 6.0 8.0 0.00 0.00 0.00 59 1013.2
20260904175856 94 225 6.0 10.0 0.00 0.00 0.00 60 1013.4
20260904174816 94 158 3.0 5.0 0.00 0.00 0.00 61 1013.5
20260904173816 94 158 2.0 4.0 0.00 0.00 0.00 61 1013.5
20260904172816 93 203 3.0 5.0 0.00 0.00 0.00 61 1013.6
20260904171816 93 158 4.0 7.0 0.00 0.00 0.00 62 1013.7
20260904170816 92 225 4.0 8.0 0.00 0.00 0.00 63 1013.7
20260904165816 92 203 3.0 7.0 0.00 0.00 0.00 63 1013.8
20260904164816 92 225 1.0 3.0 0.00 0.00 0.00 64 1013.9
20260904163816 91 158 6.0 9.0 0.00 0.00 0.00 65 1013.9
20260904162837 91 203 4.0 6.0 0.00 0.00 0.00 66 1013.9
20260904161816 90 248 3.0 4.0 0.00 0.00 0.00 66 1013.9
20260904160816 90 180 8.0 11.0 0.00 0.00 0.00 65 1014.0
20260904155836 89 180 2.0 5.0 0.00 0.00 0.00 69 1014.0
20260904154816 89 293 4.0 8.0 0.00 0.00 0.00 69 1014.0
20260904153816 89 180 4.0 7.0 0.00 0.00 0.00 69 1014.1
20260904152836 88 225 3.0 6.0 0.00 0.00 0.00 69 1014.1
20260904151905 88 0.0 0.0 0.00 0.00 0.00 70 1014.1
20260904151416 88 203 3.0 5.0 0.00 0.00 0.00 71 1014.2
20260904150416 87 180 2.0 4.0 0.00 0.00 0.00 70 1014.1
20260904145416 86 158 4.0 6.0 0.00 0.00 0.00 71 1014.1
20260904144416 86 180 4.0 9.0 0.00 0.00 0.00 72 1014.2
20260904143416 85 270 2.0 5.0 0.00 0.00 0.00 72 1014.3
20260904142416 85 0.0 3.0 0.00 0.00 0.00 74 1014.2
20260904141416 84 203 2.0 4.0 0.00 0.00 0.00 75 1013.9
20260904140416 83 180 3.0 7.0 0.00 0.00 0.00 76 1013.9
20260904135416 82 135 2.0 3.0 0.00 0.00 0.00 77 1013.8
20260904134436 82 180 2.0 5.0 0.00 0.00 0.00 78 1013.9
20260904133417 81 158 3.0 4.0 0.00 0.00 0.00 79 1013.9
20260904132416 80 180 2.0 3.0 0.00 0.00 0.00 80 1013.8
20260904131416 79 180 3.0 5.0 0.00 0.00 0.00 80 1013.9
20260904130416 78 180 2.0 2.0 0.00 0.00 0.00 82 1013.6
20260904125416 77 158 2.0 3.0 0.00 0.00 0.00 82 1013.5
20260904124436 76 180 2.0 3.0 0.00 0.00 0.00 84 1013.3
20260904123416 75 135 2.0 3.0 0.00 0.00 0.00 86 1013.3
20260904122436 74 158 2.0 3.0 0.00 0.00 0.00 89 1013.2
20260904121456 72 180 1.0 1.0 0.00 0.00 0.00 91 1013.1
20260904120416 72 0.0 1.0 0.00 0.00 0.00 91 1012.9
20260904115416 71 0.0 0.0 0.00 0.00 0.00 90 1012.8
20260904114417 72 0.0 0.0 0.00 0.00 0.00 90 1012.9
20260904113416 71 0.0 1.0 0.00 0.00 0.00 90 1012.9
20260904112437 72 0.0 0.0 0.00 0.00 0.00 89 1012.9
20260904111436 72 0.0 0.0 0.00 0.00 0.00 88 1012.8
20260904110416 72 0.0 0.0 0.00 0.00 0.00 88 1012.8
20260904105416 73 0.0 0.0 0.00 0.00 0.00 87 1012.6
20260904104417 73 0.0 0.0 0.00 0.00 0.00 87 1012.6
20260904103437 73 0.0 1.0 0.00 0.00 0.00 87 1012.5
20260904102416 73 0.0 0.0 0.00 0.00 0.00 87 1012.5
20260904101416 74 0.0 0.0 0.00 0.00 0.00 86 1012.5
20260904100416 74 0.0 0.0 0.00 0.00 0.00 86 1012.4
20260904095416 74 0.0 0.0 0.00 0.00 0.00 86 1012.4
20260904094416 74 203 1.0 1.0 0.00 0.00 0.00 85 1012.3